MIDAS 5 DEB, 18603

Orbit data source: Space-Track

MIDAS 5 DEB, 18603 is space debris in LEO originally from a launch on Mon, 09 Apr 1962 UTC via an ATLAS AGENA B launch vehicle from the Air Force Western Test Range (AFWTR). Debris objects in space refer to the collection of defunct objects orbiting the Earth. Examples of debris include non-operational satellites, rocket bodies, and fragments generated from explosions, collisions, or faulty payload assembly.

Loading next visibility...
Identifier
18603, 1962-010G
Orbit
LEO
Country
Flag of USUS
Related business
Manufacturer
MIT-LL
Mission
Spacecraft
Bus & Motor
WESTFORD DRAG, Unknown motor
Mass
~1 kg wet, ~1 kg dry
Launch date (UTC)
1962-04-09 (64 years ago)
Launch vehicle
ATLAS AGENA B
Launch site
Air Force Western Test Range (AFWTR)
Object type
Payload
Rocket body
Debris
Shape & HBR
Unknown
Radar Cross Section
Medium (>0.1 m² and <1 m²)

Expand to show TLE details & history
Last TLE update: 15 hours ago

TLE from 15 hours ago
0 MIDAS 5 DEB
1 18603U 62010G   26119.58724226  .00000028  00000-0  45879-2 0  9997
2 18603  86.6887 333.1972 0288405 121.0451 266.3674  9.41013335373974
Epoch: 2026-04-29T14:05Z
TLE epoch observation values (Epoch: 2026-04-29T14:05:37.731Z)
Latitude
24.09703°
Longitude
-94.27937°
Altitude
3,126.448 km
Speed
6.47 km/s
True Right ascension
22h 18m 41s
True Declination
24° 00' 04"
Sunlit
Object was in daylight at epoch
Visualization orbit readout
Latitude
Unknown
Longitude
Unknown
Altitude
Unknown
Speed
Unknown
Apparent Right ascension
Unknown
Apparent Declination
Unknown
Sunlit
N/A
Visualization observer readout
Local Sidereal Time
12:34:24
Azimuth
Unknown
Elevation
Unknown
Doppler factor
Unknown
Orbital elements
Apogee altitude
3,369.831 km
Perigee altitude
2,823.32 km
Semi-major axis
9,474.713 km
Eccentricity
0.02884
Inclination
86.6887°
RAAN
333.1972°
Arg. of periapsis
121.0451°
True anomaly
263.07849°
Mean anomaly
266.3674°
Eccentric anomaly
264.72197°
Mean motion
2.35339 °/min
Orbital period
152.97 mins
BSTAR
0.0045879
Loading maneuver chart data...
Computing Atmospheric mass density...
Loading historical data...
Loading historical data...
Loading historical data...
Loading historical data...
Loading historical data...
Loading historical data...
Loading historical data...

Documentation

Showing up to 5 results
|